Carmi, IL

11:16 AM CDT on July 27, 2017 (GMT -0500)
Carmi Municipal

Weather History for KCUL - July, 2013

Change the Weather History Date:

Friday, July 26, 2013

  Actual Average (KEHR) Record (KEHR)
Temperature  
Mean Temperature 70 °F -  
Max Temperature 83 °F 89 °F 102 °F (1936)
Min Temperature 58 °F 67 °F 55 °F (1962)
Cooling Degree Days 6    
Growing Degree Days 20 (Base 50)    
Moisture  
Dew Point 62 °F    
Average Humidity 76    
Maximum Humidity 96    
Minimum Humidity 41    
Precipitation  
Precipitation 0.02 in - - ()
Sea Level Pressure  
Sea Level Pressure 30.04 in    
Wind  
Wind Speed 2 mph (SW)    
Max Wind Speed 10 mph    
Max Gust Speed -    
Visibility 8 miles    
Events Fog , Rain    
Averages and records for this station are not official NWS values.
T = Trace of Precipitation, MM = Missing Value Source: NWS Daily Summary

Daily Weather History Graph

Daily Weather History Graph

Search for Another Location

Airport or City:

Trip Planner

Search our weather history database for the weather conditions in past years. The results will help you decide how hot, cold, wet, or windy it might be!

Date:

Astronomy

Jul. 26, 2013 Rise Set
Actual Time 5:50 AM CDT 8:07 PM CDT
Civil Twilight 5:20 AM CDT 8:36 PM CDT
Nautical Twilight 4:44 AM CDT 9:13 PM CDT
Astronomical Twilight 4:04 AM CDT 9:53 PM CDT
Moon 10:26 PM CDT (7/26) 10:21 AM CDT (7/26)
Length of Visible Light 15h 16m
Length of Day
14h 16m
Waning Gibbous, 80% of the Moon is Illuminated
Jul 26
Waning Gibbous
Jul 29
Last Quarter
Aug 6
New
Aug 14
First Quarter
Aug 20
Full

Hourly Weather History & Observations

Time (CDT) Temp. Heat Index Dew Point Humidity Pressure Visibility Wind Dir Wind Speed Gust Speed Precip Events Conditions
12:15 AM 63.0 °F - 61.3 °F 94% 30.09 in 10.0 mi Calm Calm - N/A   Clear
12:35 AM 62.8 °F - 61.2 °F 94% 30.08 in 7.0 mi Calm Calm - N/A   Clear
12:55 AM 62.8 °F - 61.2 °F 94% 30.07 in 7.0 mi Calm Calm - N/A   Clear
1:15 AM 62.4 °F - 60.8 °F 94% 30.08 in 10.0 mi Calm Calm - N/A   Clear
1:35 AM 62.2 °F - 60.6 °F 94% 30.07 in 5.0 mi Calm Calm - N/A   Clear
1:55 AM 62.6 °F - 61.2 °F 95% 30.07 in 3.0 mi Calm Calm - N/A   Clear
2:15 AM 61.7 °F - 60.3 °F 95% 30.08 in 4.0 mi Calm Calm - N/A   Clear
2:35 AM 62.1 °F - 60.8 °F 96% 30.07 in 7.0 mi Calm Calm - N/A   Clear
2:55 AM 60.8 °F - 59.2 °F 94% 30.06 in 3.0 mi Calm Calm - N/A   Clear
3:15 AM 60.8 °F - 59.2 °F 94% 30.05 in 1.8 mi East 3.5 mph - N/A   Mist
3:35 AM 60.8 °F - 59.2 °F 94% 30.06 in 4.0 mi Calm Calm - N/A   Clear
3:55 AM 60.8 °F - 59.4 °F 95% 30.05 in 7.0 mi Calm Calm - N/A   Clear
4:15 AM 60.8 °F - 59.5 °F 96% 30.05 in 7.0 mi Calm Calm - N/A   Clear
4:35 AM 60.4 °F - 59.0 °F 95% 30.06 in 7.0 mi Calm Calm - N/A   Clear
4:55 AM 60.1 °F - 58.6 °F 95% 30.06 in 5.0 mi Calm Calm - N/A   Clear
5:15 AM 59.9 °F - 58.5 °F 95% 30.06 in 4.0 mi Calm Calm - N/A   Clear
5:35 AM 59.4 °F - 57.9 °F 95% 30.05 in 0.5 mi Calm Calm - N/A Fog Fog
5:55 AM 58.6 °F - 57.2 °F 95% 30.05 in 0.8 mi Calm Calm - N/A   Mist
6:15 AM 58.6 °F - 57.4 °F 96% 30.06 in 0.2 mi Calm Calm - N/A Fog Fog
6:35 AM 59.5 °F - 58.3 °F 96% 30.07 in 0.2 mi Calm Calm - N/A Fog Fog
6:55 AM 61.3 °F - 60.1 °F 96% 30.07 in 7.0 mi Calm Calm - N/A   Scattered Clouds
7:15 AM 63.3 °F - 62.1 °F 96% 30.07 in 7.0 mi Calm Calm - N/A   Clear
7:35 AM 65.3 °F - 63.9 °F 95% 30.07 in 10.0 mi Calm Calm - N/A   Clear
7:55 AM 67.6 °F - 64.8 °F 90% 30.07 in 10.0 mi Calm Calm - N/A   Clear
8:15 AM 70.7 °F - 64.8 °F 81% 30.07 in 10.0 mi Calm Calm - N/A   Clear
8:35 AM 72.0 °F - 64.2 °F 77% 30.07 in 10.0 mi Calm Calm - N/A   Clear
8:55 AM 73.4 °F - 62.2 °F 68% 30.07 in 10.0 mi Calm Calm - N/A   Clear
9:15 AM 74.7 °F - 62.6 °F 66% 30.07 in 10.0 mi Calm Calm - N/A   Clear
9:35 AM 75.7 °F - 60.6 °F 59% 30.07 in 10.0 mi South 4.6 mph - N/A   Clear
9:55 AM 77.7 °F - 60.8 °F 56% 30.07 in 10.0 mi SW 3.5 mph - N/A   Clear
10:15 AM 79.0 °F - 59.2 °F 51% 30.07 in 10.0 mi SSW 4.6 mph - N/A   Clear
10:35 AM 79.2 °F - 59.2 °F 50% 30.07 in 10.0 mi WSW 4.6 mph - N/A   Clear
10:55 AM 79.5 °F - 59.0 °F 49% 30.07 in 10.0 mi SSW 4.6 mph - N/A   Scattered Clouds
11:15 AM 79.2 °F - 58.1 °F 48% 30.07 in 10.0 mi SW 5.8 mph - N/A   Scattered Clouds
11:35 AM 80.4 °F 80.8 °F 58.1 °F 46% 30.07 in 10.0 mi Calm Calm - N/A   Clear
11:55 AM 80.6 °F 80.8 °F 57.6 °F 45% 30.06 in 10.0 mi WSW 6.9 mph - N/A   Clear
12:15 PM 81.5 °F 81.7 °F 58.8 °F 46% 30.06 in 10.0 mi SW 3.5 mph - N/A   Clear
12:35 PM 81.5 °F 81.8 °F 59.7 °F 47% 30.06 in 10.0 mi SW 5.8 mph - N/A   Clear
12:55 PM 82.2 °F 82.0 °F 57.7 °F 43% 30.05 in 10.0 mi SSW 5.8 mph - N/A   Clear
1:15 PM 83.3 °F 82.9 °F 58.1 °F 42% 30.05 in 10.0 mi SW 6.9 mph - N/A   Clear
1:35 PM 82.6 °F 82.2 °F 57.2 °F 42% 30.04 in 10.0 mi SSW 3.5 mph - N/A   Scattered Clouds
1:55 PM 83.7 °F 83.1 °F 57.7 °F 41% 30.04 in 10.0 mi South 4.6 mph - N/A   Scattered Clouds
2:15 PM 82.0 °F 82.1 °F 58.5 °F 45% 30.04 in 10.0 mi West 6.9 mph - N/A   Scattered Clouds
2:35 PM 82.4 °F 82.5 °F 58.8 °F 45% 30.04 in 10.0 mi West 4.6 mph - N/A   Mostly Cloudy
2:55 PM 82.0 °F 82.8 °F 61.5 °F 50% 30.04 in 10.0 mi West 6.9 mph - N/A   Mostly Cloudy
3:15 PM 82.4 °F 83.0 °F 61.3 °F 49% 30.03 in 10.0 mi West 5.8 mph - N/A   Mostly Cloudy
3:35 PM 81.3 °F 81.9 °F 60.6 °F 49% 30.03 in 10.0 mi SW 6.9 mph - N/A   Mostly Cloudy
3:55 PM 81.7 °F 81.9 °F 59.2 °F 46% 30.03 in 10.0 mi SSW 4.6 mph - N/A   Scattered Clouds
4:15 PM 81.5 °F 82.1 °F 60.6 °F 49% 30.02 in 10.0 mi SW 5.8 mph - N/A   Mostly Cloudy
4:35 PM 80.1 °F 81.1 °F 61.7 °F 53% 30.02 in 10.0 mi SW 5.8 mph - N/A   Mostly Cloudy
4:55 PM 79.7 °F - 63.0 °F 56% 30.02 in 10.0 mi SW 4.6 mph - N/A   Mostly Cloudy
5:15 PM 78.4 °F - 63.5 °F 60% 30.03 in 10.0 mi West 5.8 mph - N/A Rain Light Rain
5:35 PM 77.2 °F - 64.9 °F 66% 30.03 in 10.0 mi West 5.8 mph - N/A Rain Light Rain
5:55 PM 75.4 °F - 65.3 °F 71% 30.03 in 10.0 mi WSW 10.4 mph - N/A   Light Drizzle
6:15 PM 73.4 °F - 64.9 °F 75% 30.03 in 10.0 mi WSW 9.2 mph - N/A Rain Light Rain
6:35 PM 72.5 °F - 66.4 °F 81% 30.03 in 10.0 mi WSW 6.9 mph - N/A Rain Light Rain
6:55 PM 71.8 °F - 66.9 °F 85% 30.02 in 10.0 mi WSW 4.6 mph - N/A Rain Light Rain
7:15 PM 71.6 °F - 67.3 °F 86% 30.02 in 10.0 mi WSW 4.6 mph - 0.01 in Rain Light Rain
7:35 PM 71.1 °F - 67.3 °F 88% 30.01 in 10.0 mi WSW 4.6 mph - 0.01 in Rain Light Rain
7:55 PM 70.7 °F - 67.5 °F 89% 30.01 in 10.0 mi SW 3.5 mph - 0.01 in Rain Light Rain
8:15 PM 70.3 °F - 67.1 °F 89% 30.00 in 10.0 mi SW 3.5 mph - N/A   Light Drizzle
8:35 PM 70.0 °F - 66.7 °F 89% 30.00 in 10.0 mi WSW 3.5 mph - 0.01 in   Clear
8:55 PM 70.0 °F - 66.7 °F 89% 30.00 in 10.0 mi SW 3.5 mph - 0.01 in   Scattered Clouds
9:15 PM 69.8 °F - 66.7 °F 90% 30.00 in 10.0 mi Calm Calm - N/A   Scattered Clouds
9:35 PM 69.8 °F - 67.1 °F 91% 30.00 in 10.0 mi Calm Calm - N/A   Scattered Clouds
9:55 PM 69.8 °F - 67.1 °F 91% 30.00 in 10.0 mi Calm Calm - N/A   Mostly Cloudy
10:15 PM 69.3 °F - 66.4 °F 91% 29.99 in 10.0 mi SSE 3.5 mph - N/A   Overcast
10:35 PM 69.3 °F - 66.6 °F 91% 29.98 in 10.0 mi Calm Calm - N/A   Overcast
10:55 PM 69.8 °F - 67.1 °F 91% 29.98 in 7.0 mi East 3.5 mph - N/A   Overcast
11:15 PM 69.8 °F - 67.1 °F 91% 29.99 in 7.0 mi Calm Calm - N/A Rain Rain
11:35 PM 69.8 °F - 67.3 °F 92% 30.00 in 10.0 mi Calm Calm - N/A   Overcast
11:55 PM 69.4 °F - 67.1 °F 92% 29.99 in 10.0 mi Calm Calm - N/A   Mostly Cloudy